Weather in Veseloe

Russia / Krasnodar Krai     43°25′02″N   40°00′26″E
temp.,
°C
wind,
m/s
gust,
m/s
humid.,
%
clouds,
%
prec.,
mm/h
press.,
hPa
HPBL,
m
20 january, wed
wed2000:00−1ese2370100 0.4 1022199
03:00−1ese2296100 2.6 1022169
06:00−1sse3498100 3.7 1022281
09:00−1se2390100 5.6 1023203
12:00−1wnw2485100 3.6 1024506
15:000wnw3469100 3.8 1024856
18:00−4n237834 0.0 1027175
21:00−5ne237418 0.0 1027118
21 january, thu
thu2100:00−5ne22660 0.0 102885
03:00−5ene32617 0.0 102863
06:00−3e226586 0.0 102877
09:00−1ese127793 0.1 1029213
12:00+1s2386100 0.1 1029401
15:00+2sse349299 0.2 1029415
18:000ese2394100 0.2 1031152
21:000e238191 0.2 1031120
22 january, fri
fri2200:00−1e237753 0.0 1032138
03:00−1ene327227 0.0 103180
06:00−1ene22680 0.0 103065
09:00+1ene22670 0.0 103066
12:00+5s12680 0.0 1028271
15:00+6ese11770 0.0 1026211
18:00+3ene227960 0.0 102654
21:00+3ene226781 0.0 102736
23 january, sat
sat2300:00+2ene326142 0.0 102637
03:00+2ene325822 0.0 102539
06:00+2ene32550 0.0 102539
09:00+3ene22580 0.0 102539
12:00+7sse11660 0.0 1024153
15:00+7e11790 0.0 102371
18:00+5ene227269 0.0 102333
21:00+4ene326170 0.0 102337
24 january, sun
sun2400:00+4ene33580 0.0 102139
03:00+4ene32580 0.0 102139
06:00+4ene325827 0.0 101939
09:00+5ene225921 0.0 101943
12:00+10ese116822 0.0 101785
15:00+10e117860 0.0 101648
18:00+7ene2268100 0.0 101626
21:00+7ene3257100 0.0 101630